Danbury, CT

4:49 PM EDT on August 18, 2017 (GMT -0400)
Danbury Municipal

Weather History for KDXR - January, 2013

Change the Weather History Date:

Thursday, January 10, 2013

  Actual Average Record
Temperature  
Mean Temperature 36 °F -  
Max Temperature 45 °F 32 °F 59 °F (2016)
Min Temperature 26 °F 17 °F -6 °F (1968)
Degree Days  
Heating Degree Days 30    
Moisture  
Dew Point 23 °F    
Average Humidity 60    
Maximum Humidity 88    
Minimum Humidity 40    
Precipitation  
Precipitation 0.00 in - - ()
Sea Level Pressure  
Sea Level Pressure 30.44 in    
Wind  
Wind Speed 6 mph (NW)    
Max Wind Speed 13 mph    
Max Gust Speed 21 mph    
Visibility 10 miles    
Events      
Averages and records for this station are not official NWS values.
T = Trace of Precipitation, MM = Missing Value Source: NWS Daily Summary

Daily Weather History Graph

Daily Weather History Graph

Search for Another Location

Airport or City:

Trip Planner

Search our weather history database for the weather conditions in past years. The results will help you decide how hot, cold, wet, or windy it might be!

Date:

Astronomy

Jan. 10, 2013 Rise Set
Actual Time 7:19 AM EST 4:44 PM EST
Civil Twilight 6:48 AM EST 5:14 PM EST
Nautical Twilight 6:14 AM EST 5:49 PM EST
Astronomical Twilight 5:40 AM EST 6:22 PM EST
Moon 5:56 AM EST (1/10) 3:49 PM EST (1/10)
Length of Visible Light 10h 26m
Length of Day
9h 24m
Waning Crescent, 2% of the Moon is Illuminated
Jan 10
Waning Crescent
Jan 11
New
Jan 18
First Quarter
Jan 26
Full
Feb 3
Last Quarter

Hourly Weather History & Observations

Time (EST) Temp. Windchill Dew Point Humidity Pressure Visibility Wind Dir Wind Speed Gust Speed Precip Events Conditions
12:53 AM 43.0 °F 37.2 °F 27.0 °F 53% 30.20 in 10.0 mi West 10.4 mph 19.6 mph N/A   Clear
1:53 AM 43.0 °F 37.7 °F 26.1 °F 51% 30.24 in 10.0 mi West 9.2 mph 18.4 mph N/A   Clear
2:53 AM 39.9 °F 35.8 °F 24.1 °F 53% 30.27 in 10.0 mi NW 5.8 mph - N/A   Clear
3:53 AM 39.0 °F 34.0 °F 21.9 °F 50% 30.30 in 10.0 mi West 6.9 mph - N/A   Clear
4:53 AM 39.9 °F 36.7 °F 23.0 °F 51% 30.31 in 10.0 mi NNW 4.6 mph - N/A   Clear
5:53 AM 32.0 °F - 25.0 °F 75% 30.36 in 10.0 mi Calm Calm - N/A   Partly Cloudy
6:53 AM 30.0 °F - 24.1 °F 79% 30.40 in 10.0 mi Calm Calm - N/A   Clear
7:53 AM 26.1 °F - 23.0 °F 88% 30.44 in 10.0 mi Calm Calm - N/A   Clear
8:53 AM 34.0 °F - 25.0 °F 70% 30.47 in 10.0 mi Calm Calm - N/A   Clear
9:53 AM 39.9 °F 35.1 °F 21.9 °F 49% 30.49 in 10.0 mi WNW 6.9 mph - N/A   Clear
10:53 AM 42.1 °F 36.1 °F 21.0 °F 43% 30.48 in 10.0 mi NW 10.4 mph 20.7 mph N/A   Clear
11:53 AM 43.0 °F 36.4 °F 21.9 °F 43% 30.46 in 10.0 mi NW 12.7 mph 18.4 mph N/A   Clear
12:53 PM 44.1 °F 38.1 °F 21.9 °F 42% 30.43 in 10.0 mi NNW 11.5 mph - N/A   Clear
1:53 PM 45.0 °F 40.6 °F 21.9 °F 40% 30.45 in 10.0 mi NNW 8.1 mph - N/A   Clear
3:53 PM 45.0 °F 41.2 °F 21.9 °F 40% 30.49 in 10.0 mi NNW 6.9 mph - N/A   Clear
4:36 PM 42.8 °F 40.1 °F 21.2 °F 42% 30.48 in 10.0 mi NNW 4.6 mph - N/A   Clear
4:53 PM 42.1 °F 37.1 °F 21.9 °F 45% 30.50 in 10.0 mi NNW 8.1 mph - N/A   Clear
5:53 PM 39.0 °F 35.7 °F 21.9 °F 50% 30.51 in 10.0 mi NNW 4.6 mph - N/A   Clear
6:53 PM 32.0 °F - 21.9 °F 66% 30.53 in 10.0 mi Calm Calm - N/A   Clear
7:53 PM 32.0 °F - 25.0 °F 75% 30.55 in 10.0 mi Calm Calm - N/A   Clear
8:53 PM 30.0 °F 26.5 °F 24.1 °F 79% 30.56 in 10.0 mi WSW 3.5 mph - N/A   Clear
9:53 PM 28.0 °F - 21.9 °F 78% 30.56 in 10.0 mi Calm Calm - N/A   Clear
10:53 PM 28.0 °F - 24.1 °F 85% 30.55 in 10.0 mi Calm Calm - N/A   Clear
11:53 PM 26.1 °F 21.9 °F 21.9 °F 84% 30.55 in 10.0 mi WSW 3.5 mph - N/A   Clear